This demonstration page uses our WeatherBlox Daily Observations layout. Learn more.

Left ArrowRight Arrow

31.31129, -92.44514

Hourly Observations for April 28, 2017

Temp ( °F °C ) Dew Point ( °F °C ) Humidity (%) Winds ( mph kmh ) Pressure ( in mb ) Visibility ( mi km ) Precip ( " mm )
12:53 am 00:53 Clear 64 17.8 58 14.4 81 81 SSE 7 11 29.73 1007 10 16 0.00 0.00
1:53 am 01:53 Clear 63 17.2 58 14.4 84 84 SE 7 11 29.71 1006 10 16 0.00 0.00
2:53 am 02:53 Mostly Cloudy 67 19.4 60 15.6 79 79 ESE 8 13 29.69 1005 10 16 0.00 0.00
3:05 am 03:05 Cloudy 67 19.4 61 16.1 81 81 SE 8 13 29.68 1005 10 16 0.00 0.00
3:53 am 03:53 Cloudy 69 20.6 63 17.2 81 81 ESE 9 15 29.69 1005 10 16 0.00 0.00
4:53 am 04:53 Cloudy 69 20.6 65 18.3 87 87 ESE 7 11 29.69 1006 9 14 0.00 0.00
5:53 am 05:53 Cloudy 70 21.1 67 19.4 90 90 SE 7 11 29.72 1006 8 13 0.00 0.00
6:53 am 06:53 Cloudy with Mist and Fog 72 22.2 69 20.6 91 91 SE 10 17 29.73 1007 5 8 0.00 0.00
7:53 am 07:53 Cloudy with Mist and Fog 73 22.8 70 21.1 90 90 SSE 12 19 29.74 1007 5 8 0.00 0.00
8:53 am 08:53 Cloudy with Haze 77 25 72 22.2 85 85 SSE 14 22 29.74 1007 5 8 0.00 0.00
9:01 am 09:01 Cloudy with Haze 77 25 72 22.2 85 85 SSE 12 19 29.74 1007 5 8 0.00 0.00
9:53 am 09:53 Cloudy with Haze 80 26.7 72 22.2 76 76 SSE 14 22 29.75 1008 5 8 0.00 0.00
10:53 am 10:53 Cloudy with Haze 83 28.3 71 21.7 67 67 S 20 31 29.76 1008 4 6 0.00 0.00
11:53 am 11:53 Cloudy with Haze 83 28.3 71 21.7 67 67 S 18 30 29.77 1008 5 8 0.00 0.00
12:05 pm 12:05 Cloudy with Haze 83 28.3 71 21.7 67 67 S 21 33 29.77 1008 4 6 0.00 0.00
12:53 pm 12:53 Cloudy with Haze 86 30 71 21.7 61 61 S 20 31 29.76 1008 5 8 0.00 0.00
1:53 pm 13:53 Mostly Cloudy with Haze 89 31.7 72 22.2 57 57 S 21 33 29.75 1008 6 10 0.00 0.00
3:53 pm 15:53 Mostly Cloudy with Haze 87 30.6 74 23.3 65 65 SSE 21 33 29.73 1007 6 10 0.00 0.00
4:53 pm 16:53 Cloudy with Haze 84 28.9 73 22.8 70 70 S 18 30 29.74 1007 6 10 0.00 0.00
5:53 pm 17:53 Cloudy with Haze 83 28.3 73 22.8 72 72 SSE 14 22 29.75 1007 6 10 0.00 0.00
6:16 pm 18:16 Cloudy with Haze 82 27.8 72 22.2 72 72 SSE 18 30 29.74 1007 6 10 0.00 0.00
6:53 pm 18:53 Cloudy with Haze 82 27.8 72 22.2 72 72 SSE 18 30 29.75 1008 6 10 0.00 0.00
7:53 pm 19:53 Cloudy 80 26.7 72 22.2 76 76 SSE 14 22 29.76 1008 7 11 0.00 0.00
8:53 pm 20:53 Cloudy 79 26.1 72 22.2 79 79 SSE 13 20 29.79 1009 7 11 0.00 0.00
9:53 pm 21:53 Cloudy 79 26.1 73 22.8 82 82 SSE 14 22 29.81 1010 7 11 0.00 0.00
10:53 pm 22:53 Cloudy 79 26.1 73 22.8 82 82 SSE 16 26 29.83 1010 7 11 0.00 0.00
11:53 pm 23:53 Cloudy 79 26.1 73 22.8 82 82 SE 17 28 29.83 1010 7 11 0.00 0.00

Powered by AerisWeather